Flag for Brazil Weather past 2 weeks in Santarém, Para, Brazil

Now
73 °F

Clear.


Feels Like: 68 °F
Forecast: 76 / 95 °F
Wind: 5 mph from Southeast

Location: Santarem-Aeroporto

Current Time: Oct 25, 2014 at 7:14:44 AM

Latest Report: Oct 25, 2014 at 6:00 AM


Visibility: 10 mi

Pressure: 29.80 "Hg

Humidity: 100%

Dew point: 73 °F

Location of SantarémLocation

Historic Weather in Santarém — Graph

°F

Santarém temperature yesterday

Maximum temperature yesterday: 90 °F (at 4:00 PM)
Minimum temperature yesterday: 73 °F (at 4:00 AM)
Average temperature yesterday: 80 °F

Past Weeks' High & Low Weather Summary

 TemperatureHumidityPressure
High93 °F (Oct 12, 3:00 PM)100% (Oct 16, 2:00 AM)29.95 "Hg (Oct 16, 2:00 AM)
Low73 °F (Oct 16, 4:00 AM)44% (Oct 20, 4:00 PM)29.71 "Hg (Oct 24, 5:00 PM)
Average83 °F78%29.85 "Hg
* Reported Oct 10 6:00 AM — Oct 25 6:00 AM, Santarém, Weather by CustomWeather, © 2014

Note: Actual official high and low records may vary slightly from our data, if they occured in-between our weather recording intervals... More about our weather records

Advertising

Santarém weather history for previous 24 hours

 ConditionsComfort  
Time TempWeatherWind HumidityBarometerVisibility
6:00 AM
Oct 25
73 °FClear.5 mph100%29.80 "Hg10 mi
5:00 AM73 °FClear.5 mph100%29.77 "Hg10 mi
4:00 AM73 °FClear.2 mph100%29.77 "Hg10 mi
3:00 AM75 °FClear.No wind94%29.77 "Hg10 mi
2:00 AM75 °FClear.No wind94%29.77 "Hg10 mi
1:00 AM75 °FClear.No wind94%29.80 "Hg10 mi
12:00 AM75 °FClear.No wind94%29.80 "Hg10 mi
11:00 PM
Oct 24
77 °FClear.No wind94%29.80 "Hg10 mi
10:00 PM77 °FClear.3 mph94%29.80 "Hg10 mi
9:00 PM77 °FClear.3 mph94%29.77 "Hg10 mi
8:00 PM79 °FPassing clouds.3 mph89%29.74 "HgN/A
7:00 PM82 °FPassing clouds.6 mph79%29.74 "HgN/A
6:00 PM88 °FPassing clouds.8 mph66%29.71 "HgN/A
5:00 PM88 °FPassing clouds.7 mph66%29.71 "HgN/A
4:00 PM90 °FPassing clouds.7 mph63%29.74 "HgN/A
3:00 PM88 °FPassing clouds.7 mph66%29.77 "HgN/A
2:00 PM88 °FPassing clouds.8 mph66%29.83 "HgN/A
1:00 PM86 °FPassing clouds.8 mph70%29.86 "HgN/A
12:00 PM84 °FBroken clouds.9 mph79%29.89 "HgN/A
11:00 AM84 °FScattered clouds.8 mph79%29.89 "HgN/A
10:00 AM82 °FPartly sunny.5 mph89%29.92 "HgN/A
9:00 AM77 °FLight rain. Broken clouds.5 mph94%29.92 "Hg3 mi
8:00 AM77 °FScattered clouds.3 mph94%29.86 "HgN/A
7:00 AM73 °FPassing clouds.2 mph100%29.86 "HgN/A
Weather by CustomWeather, © 2014

See weather overviewHow to use our weather pages